FDX716 KMEM-KSLC

Flight info

Callsign FDX716
Flight time N/A
Altitude 30000
Route DUCKZ5 HELAR ICT OATHE RACER JAZZZ1
Aircraft MD11/H-SDE1E2E3FGHIJ2J3J4J5M1RWXY/LB1D1

Departure

Time 2026-05-05 22:15
Airport Memphis International Airport (KMEM)

Arrival

Time N/A
Airport Salt Lake City International Airport (KSLC)
Time Latitude Longitude Altitude Speed Heading
2026-05-05 21:55 35.06023 -89.97273 338 ft 0 kts
2026-05-05 22:06 35.06015 -89.97273 338 ft 4 kts
2026-05-05 22:06 35.05987 -89.97274 332 ft 4 kts
2026-05-05 22:07 35.05965 -89.97275 333 ft 2 kts
2026-05-05 22:07 35.05945 -89.97273 334 ft 4 kts 320°
2026-05-05 22:07 35.05935 -89.97256 332 ft 3 kts 272°
2026-05-05 22:07 35.05935 -89.97225 338 ft 3 kts 272°
2026-05-05 22:08 35.05934 -89.97222 333 ft 0 kts 272°
2026-05-05 22:11 35.05935 -89.97242 333 ft 5 kts 272°
2026-05-05 22:11 35.05937 -89.97299 334 ft 9 kts 272°
2026-05-05 22:12 35.05939 -89.97384 334 ft 11 kts 272°
2026-05-05 22:12 35.05932 -89.97461 334 ft 8 kts 247°
2026-05-05 22:12 35.05890 -89.97488 335 ft 7 kts 183°
2026-05-05 22:12 35.05825 -89.97488 337 ft 11 kts 180°
2026-05-05 22:13 35.05750 -89.97487 333 ft 10 kts 180°
2026-05-05 22:13 35.05673 -89.97487 335 ft 12 kts 180°
2026-05-05 22:13 35.05584 -89.97487 334 ft 13 kts 179°
2026-05-05 22:13 35.05508 -89.97502 333 ft 10 kts 207°
2026-05-05 22:14 35.05462 -89.97557 328 ft 11 kts 231°
2026-05-05 22:14 35.05411 -89.97602 327 ft 9 kts 199°
2026-05-05 22:14 35.05282 -89.97612 329 ft 46 kts 180°
2026-05-05 22:14 35.04686 -89.97602 328 ft 121 kts 179°
2026-05-05 22:15 35.03647 -89.97574 385 ft 168 kts 178°
2026-05-05 22:15 35.02477 -89.97545 1085 ft 168 kts 183°
2026-05-05 22:15 35.01385 -89.97862 1975 ft 159 kts 200°
2026-05-05 22:15 35.00384 -89.98333 2921 ft 151 kts 203°
2026-05-05 22:16 34.99407 -89.98806 3653 ft 156 kts 205°
2026-05-05 22:16 34.98313 -89.99321 4044 ft 180 kts 203°
2026-05-05 22:16 34.97046 -89.99925 4301 ft 211 kts 208°
2026-05-05 22:16 34.95735 -90.00931 4470 ft 236 kts 221°
2026-05-05 22:17 34.94703 -90.02504 5153 ft 244 kts 240°
2026-05-05 22:17 34.94203 -90.04500 6075 ft 252 kts 259°
2026-05-05 22:17 34.94109 -90.06671 6955 ft 257 kts 265°
2026-05-05 22:17 34.94107 -90.08874 7834 ft 261 kts 267°
2026-05-05 22:18 34.94240 -90.11096 8738 ft 264 kts 274°
2026-05-05 22:18 34.94551 -90.13317 9672 ft 267 kts 277°
2026-05-05 22:18 34.94905 -90.15565 10281 ft 279 kts 277°
2026-05-05 22:18 34.95287 -90.17981 10402 ft 308 kts 278°
2026-05-05 22:19 34.95695 -90.20668 10647 ft 330 kts 277°
2026-05-05 22:19 34.96067 -90.23443 11450 ft 334 kts 277°
2026-05-05 22:19 34.96426 -90.26256 12302 ft 336 kts 277°
2026-05-05 22:19 34.96780 -90.29090 13112 ft 339 kts 277°
2026-05-05 22:20 34.97134 -90.31939 13843 ft 342 kts 277°
2026-05-05 22:20 34.97490 -90.34824 14520 ft 345 kts 277°
2026-05-05 22:20 34.97848 -90.37724 15192 ft 347 kts 277°
2026-05-05 22:20 34.98208 -90.40641 15869 ft 350 kts 277°
2026-05-05 22:21 34.98570 -90.43585 16505 ft 352 kts 278°
2026-05-05 22:21 34.98934 -90.46555 17131 ft 355 kts 278°
2026-05-05 22:21 34.99296 -90.49508 17745 ft 357 kts 278°
2026-05-05 22:21 34.99664 -90.52517 18310 ft 360 kts 278°
2026-05-05 22:22 35.00034 -90.55551 18831 ft 362 kts 278°
2026-05-05 22:22 35.00405 -90.58600 19328 ft 365 kts 278°
2026-05-05 22:22 35.00777 -90.61671 19838 ft 367 kts 278°
2026-05-05 22:22 35.01153 -90.64773 20304 ft 370 kts 278°
2026-05-05 22:23 35.01530 -90.67887 20784 ft 372 kts 278°
2026-05-05 22:23 35.01907 -90.71015 21282 ft 375 kts 278°
2026-05-05 22:23 35.02260 -90.74133 21734 ft 378 kts 276°
2026-05-05 22:23 35.02430 -90.77338 22250 ft 380 kts 272°
2026-05-05 22:24 35.02482 -90.80585 22742 ft 383 kts 271°
2026-05-05 22:24 35.02493 -90.83848 23248 ft 386 kts 271°
2026-05-05 22:24 35.02584 -90.87132 23706 ft 388 kts 275°
2026-05-05 22:24 35.03040 -90.90374 24216 ft 389 kts 285°
2026-05-05 22:25 35.04014 -90.93461 24727 ft 391 kts 294°
2026-05-05 22:25 35.05360 -90.96370 25243 ft 394 kts 298°
2026-05-05 22:25 35.06835 -90.99189 25771 ft 395 kts 300°
2026-05-05 22:25 35.08341 -91.01999 26299 ft 396 kts 300°
2026-05-05 22:26 35.09843 -91.04828 26804 ft 397 kts 300°
2026-05-05 22:26 35.11310 -91.07637 27297 ft 397 kts 299°
2026-05-05 22:26 35.12787 -91.10503 27800 ft 398 kts 299°
2026-05-05 22:26 35.14256 -91.13382 28281 ft 399 kts 298°
2026-05-05 22:27 35.15723 -91.16272 28701 ft 402 kts 298°
2026-05-05 22:27 35.17194 -91.19178 29107 ft 402 kts 298°
2026-05-05 22:27 35.18663 -91.22085 29518 ft 402 kts 298°
2026-05-05 22:27 35.20129 -91.25008 29912 ft 404 kts 298°
2026-05-05 22:28 35.21577 -91.27905 30311 ft 403 kts 298°
2026-05-05 22:28 35.23037 -91.30821 30821 ft 400 kts 298°
2026-05-05 22:28 35.24487 -91.33711 31382 ft 395 kts 298°
2026-05-05 22:28 35.25920 -91.36563 31927 ft 391 kts 298°
2026-05-05 22:29 35.27339 -91.39390 32318 ft 388 kts 298°
2026-05-05 22:29 35.28686 -91.42238 32722 ft 384 kts 296°
2026-05-05 22:29 35.29955 -91.45094 33105 ft 380 kts 296°
2026-05-05 22:29 35.31188 -91.47937 33516 ft 377 kts 296°
2026-05-05 22:30 35.32410 -91.50769 33749 ft 375 kts 295°
2026-05-05 22:30 35.34829 -91.56367 33803 ft 374 kts 295°
2026-05-05 22:31 35.37271 -91.62003 33802 ft 374 kts 296°
2026-05-05 22:31 35.39708 -91.67624 33804 ft 373 kts 296°
2026-05-05 22:32 35.42144 -91.73246 33796 ft 373 kts 296°
2026-05-05 22:32 35.44576 -91.78870 33792 ft 373 kts 295°
2026-05-05 22:33 35.47002 -91.84490 33797 ft 373 kts 295°
2026-05-05 22:33 35.49426 -91.90115 33792 ft 373 kts 295°
2026-05-05 22:34 35.51828 -91.95697 33788 ft 372 kts 295°
2026-05-05 22:34 35.54246 -92.01326 33788 ft 372 kts 295°
2026-05-05 22:35 35.56660 -92.06954 33783 ft 372 kts 295°
2026-05-05 22:35 35.59070 -92.12588 34173 ft 371 kts 295°
2026-05-05 22:35 35.60268 -92.15388 34486 ft 368 kts 295°
2026-05-05 22:36 35.61455 -92.18168 34805 ft 366 kts 296°
2026-05-05 22:36 35.62630 -92.20921 35090 ft 364 kts 295°
2026-05-05 22:36 35.63805 -92.23675 35365 ft 362 kts 295°
2026-05-05 22:36 35.64958 -92.26380 35636 ft 360 kts 295°
2026-05-05 22:37 35.66122 -92.29114 35749 ft 359 kts 295°
2026-05-05 22:37 35.68418 -92.34558 35781 ft 358 kts 295°
2026-05-05 22:38 35.70699 -92.39979 35777 ft 357 kts 295°
2026-05-05 22:38 35.72987 -92.45395 35778 ft 357 kts 295°
2026-05-05 22:39 35.75287 -92.50836 35777 ft 357 kts 295°
2026-05-05 22:39 35.77580 -92.56264 35771 ft 357 kts 295°
2026-05-05 22:40 35.79858 -92.61665 35773 ft 356 kts 295°
2026-05-05 22:40 35.82141 -92.67088 35769 ft 356 kts 295°
2026-05-05 22:41 35.84421 -92.72512 35767 ft 356 kts 295°
2026-05-05 22:41 35.86698 -92.77937 35763 ft 355 kts 295°
2026-05-05 22:42 35.88957 -92.83329 35764 ft 355 kts 295°
2026-05-05 22:42 35.91225 -92.88750 35764 ft 355 kts 295°
2026-05-05 22:43 35.93486 -92.94163 35761 ft 355 kts 295°
2026-05-05 22:43 35.95743 -92.99577 35772 ft 354 kts 295°
2026-05-05 22:44 35.97986 -93.04966 35786 ft 354 kts 295°
2026-05-05 22:44 36.00240 -93.10390 35794 ft 354 kts 295°
2026-05-05 22:45 36.02488 -93.15808 35807 ft 354 kts 295°
2026-05-05 22:45 36.04735 -93.21234 35808 ft 354 kts 295°
2026-05-05 22:46 36.06937 -93.26618 35813 ft 353 kts 295°
2026-05-05 22:46 36.09161 -93.32047 35814 ft 354 kts 295°
2026-05-05 22:47 36.11391 -93.37474 35817 ft 353 kts 295°
2026-05-05 22:47 36.13621 -93.42897 35810 ft 353 kts 295°
2026-05-05 22:48 36.15836 -93.48289 35808 ft 353 kts 295°
2026-05-05 22:48 36.18060 -93.53714 35803 ft 353 kts 295°
2026-05-05 22:49 36.20282 -93.59142 35798 ft 352 kts 295°
2026-05-05 22:49 36.22496 -93.64559 35803 ft 352 kts 295°
2026-05-05 22:50 36.24695 -93.69949 35814 ft 352 kts 295°
2026-05-05 22:50 36.26902 -93.75368 35822 ft 352 kts 295°
2026-05-05 22:51 36.29090 -93.80748 35838 ft 351 kts 295°
2026-05-05 22:51 36.31289 -93.86163 35833 ft 350 kts 295°
2026-05-05 22:52 36.33481 -93.91572 35840 ft 350 kts 295°
2026-05-05 22:52 36.35662 -93.96964 35848 ft 349 kts 295°
2026-05-05 22:53 36.37827 -94.02323 35848 ft 349 kts 295°
2026-05-05 22:53 36.40005 -94.07723 35850 ft 349 kts 295°
2026-05-05 22:54 36.42173 -94.13110 35852 ft 348 kts 295°
2026-05-05 22:54 36.44304 -94.18469 35849 ft 348 kts 295°
2026-05-05 22:55 36.46447 -94.23855 35873 ft 347 kts 295°
2026-05-05 22:55 36.48596 -94.29237 35874 ft 347 kts 295°
2026-05-05 22:56 36.50747 -94.34620 35868 ft 347 kts 295°
2026-05-05 22:56 36.52879 -94.39962 35866 ft 347 kts 295°
2026-05-05 22:57 36.55025 -94.45347 35872 ft 346 kts 295°
2026-05-05 22:57 36.57152 -94.50691 35880 ft 346 kts 295°
2026-05-05 22:58 36.59288 -94.56070 35884 ft 346 kts 295°
2026-05-05 22:58 36.61420 -94.61447 35888 ft 346 kts 295°
2026-05-05 22:59 36.63537 -94.66793 35888 ft 345 kts 295°
2026-05-05 22:59 36.65662 -94.72171 35894 ft 345 kts 295°
2026-05-05 23:00 36.68479 -94.79313 35888 ft 345 kts 295°
2026-05-05 23:00 36.70938 -94.85561 35889 ft 344 kts 295°
2026-05-05 23:01 36.72692 -94.90023 35892 ft 344 kts 295°
2026-05-05 23:01 36.74797 -94.95389 35905 ft 344 kts 295°
2026-05-05 23:02 36.76899 -95.00756 35894 ft 344 kts 295°
2026-05-05 23:02 36.78997 -95.06122 35906 ft 343 kts 295°
2026-05-05 23:03 36.81065 -95.11482 35892 ft 342 kts 295°
2026-05-05 23:03 36.83124 -95.16813 35908 ft 342 kts 295°
2026-05-05 23:04 36.85205 -95.22178 35909 ft 343 kts 295°
2026-05-05 23:04 36.87287 -95.27547 35886 ft 343 kts 295°
2026-05-05 23:05 36.89363 -95.32901 35915 ft 344 kts 294°
2026-05-05 23:05 36.91448 -95.38291 35916 ft 344 kts 294°
2026-05-05 23:06 36.93519 -95.43650 35923 ft 344 kts 294°
2026-05-05 23:06 36.95602 -95.49050 35921 ft 344 kts 294°
2026-05-05 23:07 36.97686 -95.54464 35923 ft 345 kts 294°
2026-05-05 23:07 36.99756 -95.59849 35927 ft 345 kts 294°
2026-05-05 23:08 37.01841 -95.65282 35930 ft 346 kts 294°
2026-05-05 23:08 37.03911 -95.70688 35927 ft 346 kts 294°
2026-05-05 23:09 37.05992 -95.76130 35945 ft 346 kts 294°
2026-05-05 23:09 37.08072 -95.81581 35946 ft 346 kts 293°
2026-05-05 23:10 37.10141 -95.87010 35941 ft 347 kts 293°
2026-05-05 23:10 37.12221 -95.92477 35946 ft 347 kts 293°
2026-05-05 23:11 37.14296 -95.97944 35935 ft 347 kts 293°
2026-05-05 23:11 37.16347 -96.03393 35941 ft 347 kts 292°
2026-05-05 23:12 37.18405 -96.08896 35943 ft 348 kts 292°
2026-05-05 23:12 37.20475 -96.14401 35938 ft 348 kts 292°
2026-05-05 23:13 37.22531 -96.19864 35943 ft 348 kts 292°
2026-05-05 23:13 37.24599 -96.25360 35943 ft 348 kts 292°
2026-05-05 23:14 37.26669 -96.30870 35940 ft 349 kts 292°
2026-05-05 23:14 37.28735 -96.36381 35942 ft 349 kts 292°
2026-05-05 23:15 37.30804 -96.41907 35948 ft 349 kts 292°
2026-05-05 23:15 37.32869 -96.47435 35951 ft 349 kts 292°
2026-05-05 23:16 37.34935 -96.52973 35951 ft 350 kts 291°
2026-05-05 23:16 37.36998 -96.58514 35956 ft 350 kts 291°
2026-05-05 23:17 37.39050 -96.64036 35946 ft 350 kts 291°
2026-05-05 23:17 37.41110 -96.69588 35953 ft 350 kts 291°
2026-05-05 23:18 37.43169 -96.75151 35956 ft 350 kts 291°
2026-05-05 23:18 37.45229 -96.80722 35950 ft 351 kts 291°
2026-05-05 23:19 37.47284 -96.86295 35962 ft 351 kts 291°
2026-05-05 23:19 37.49330 -96.91849 35964 ft 351 kts 291°
2026-05-05 23:20 37.51379 -96.97456 35955 ft 352 kts 290°
2026-05-05 23:20 37.53412 -97.03065 35943 ft 352 kts 290°
2026-05-05 23:21 37.55445 -97.08647 35960 ft 352 kts 290°
2026-05-05 23:21 37.57495 -97.14265 35961 ft 352 kts 290°
2026-05-05 23:22 37.59546 -97.19887 35943 ft 353 kts 290°
2026-05-05 23:22 37.61597 -97.25518 35959 ft 353 kts 290°
2026-05-05 23:23 37.63647 -97.31159 35946 ft 354 kts 290°
2026-05-05 23:23 37.65695 -97.36803 35946 ft 354 kts 290°
2026-05-05 23:24 37.67730 -97.42422 35959 ft 354 kts 290°
2026-05-05 23:24 37.69781 -97.48095 35950 ft 355 kts 289°
2026-05-05 23:25 37.71829 -97.53770 35952 ft 355 kts 289°
2026-05-05 23:25 37.73877 -97.59456 35944 ft 355 kts 289°
2026-05-05 23:26 37.75936 -97.65169 35949 ft 361 kts 284°
2026-05-05 23:26 37.78018 -97.71006 35953 ft 370 kts 285°
2026-05-05 23:27 37.80149 -97.76986 35961 ft 372 kts 284°
2026-05-05 23:27 37.81965 -97.83038 35958 ft 369 kts 281°
2026-05-05 23:28 37.83657 -97.89178 35958 ft 369 kts 281°
2026-05-05 23:28 37.85350 -97.95315 35963 ft 370 kts 281°
2026-05-05 23:29 37.87054 -98.01455 35964 ft 370 kts 281°
2026-05-05 23:29 37.88761 -98.07603 35957 ft 370 kts 281°
2026-05-05 23:30 37.90470 -98.13768 35962 ft 370 kts 281°
2026-05-05 23:30 37.92162 -98.19886 35969 ft 371 kts 281°
2026-05-05 23:31 37.93861 -98.26043 35959 ft 371 kts 281°
2026-05-05 23:31 37.95562 -98.32226 35962 ft 371 kts 281°
2026-05-05 23:32 37.97262 -98.38413 35967 ft 371 kts 280°
2026-05-05 23:32 37.98945 -98.44559 35967 ft 371 kts 280°
2026-05-05 23:33 38.00639 -98.50757 35973 ft 371 kts 280°
2026-05-05 23:33 38.02326 -98.56945 35973 ft 371 kts 280°
2026-05-05 23:34 38.04013 -98.63146 35976 ft 372 kts 280°
2026-05-05 23:34 38.05695 -98.69344 35986 ft 372 kts 280°
2026-05-05 23:35 38.07376 -98.75552 35989 ft 372 kts 280°
2026-05-05 23:35 38.09021 -98.81729 35985 ft 371 kts 279°
2026-05-05 23:36 38.10675 -98.87949 35988 ft 372 kts 280°
2026-05-05 23:36 38.12337 -98.94162 35990 ft 372 kts 280°
2026-05-05 23:37 38.14005 -99.00390 35992 ft 372 kts 280°
2026-05-05 23:37 38.15671 -99.06622 35992 ft 372 kts 279°
2026-05-05 23:38 38.17322 -99.12810 35992 ft 372 kts 279°
2026-05-05 23:38 38.18982 -99.19047 35995 ft 372 kts 279°
2026-05-05 23:39 38.20639 -99.25286 35992 ft 372 kts 279°
2026-05-05 23:39 38.22281 -99.31488 35993 ft 372 kts 279°
2026-05-05 23:40 38.23929 -99.37727 35990 ft 372 kts 279°
2026-05-05 23:40 38.25574 -99.43970 35993 ft 372 kts 279°
2026-05-05 23:41 38.27216 -99.50215 35992 ft 372 kts 279°
2026-05-05 23:41 38.28844 -99.56423 35991 ft 372 kts 279°
2026-05-05 23:42 38.30478 -99.62667 35991 ft 372 kts 279°
2026-05-05 23:42 38.32108 -99.68916 35994 ft 372 kts 279°
2026-05-05 23:43 38.33736 -99.75170 35992 ft 372 kts 279°
2026-05-05 23:43 38.35344 -99.81438 35993 ft 372 kts 279°
2026-05-05 23:44 38.36946 -99.87718 35992 ft 373 kts 279°
2026-05-05 23:44 38.38561 -99.94003 35989 ft 373 kts 279°
2026-05-05 23:45 38.40169 -100.00248 35991 ft 373 kts 279°
2026-05-05 23:45 38.41786 -100.06541 35988 ft 373 kts 279°
2026-05-05 23:46 38.43400 -100.12835 35985 ft 373 kts 278°
2026-05-05 23:46 38.45011 -100.19136 35997 ft 374 kts 278°
2026-05-05 23:47 38.46621 -100.25449 35998 ft 374 kts 278°
2026-05-05 23:47 38.48231 -100.31774 35992 ft 374 kts 278°
2026-05-05 23:48 38.49837 -100.38103 35996 ft 374 kts 278°
2026-05-05 23:48 38.51427 -100.44387 35997 ft 375 kts 278°
2026-05-05 23:49 38.53029 -100.50731 36003 ft 375 kts 278°
2026-05-05 23:49 38.54356 -100.55998 36010 ft 375 kts 278°
2026-05-05 23:50 38.55955 -100.62364 36011 ft 375 kts 278°
2026-05-05 23:50 38.57552 -100.68733 36018 ft 375 kts 278°
2026-05-05 23:51 38.59134 -100.75063 36020 ft 376 kts 278°
2026-05-05 23:51 38.60706 -100.81430 36025 ft 375 kts 278°
2026-05-05 23:52 38.62265 -100.87804 36024 ft 376 kts 278°
2026-05-05 23:52 38.63839 -100.94192 36006 ft 376 kts 278°
2026-05-05 23:53 38.65381 -101.00436 36004 ft 376 kts 278°
2026-05-05 23:53 38.66959 -101.06836 36001 ft 376 kts 278°
2026-05-05 23:54 38.68533 -101.13231 35995 ft 377 kts 278°
2026-05-05 23:54 38.70106 -101.19640 35989 ft 377 kts 278°
2026-05-05 23:55 38.71667 -101.26020 35982 ft 377 kts 278°
2026-05-05 23:55 38.73234 -101.32440 35980 ft 377 kts 278°
2026-05-05 23:56 38.74792 -101.38840 35980 ft 378 kts 278°
2026-05-05 23:56 38.76357 -101.45288 35976 ft 378 kts 278°
2026-05-05 23:57 38.77918 -101.51731 35978 ft 379 kts 278°
2026-05-05 23:57 38.79476 -101.58184 35971 ft 379 kts 278°
2026-05-05 23:58 38.81022 -101.64604 35973 ft 379 kts 278°
2026-05-05 23:58 38.82578 -101.71084 35973 ft 380 kts 278°
2026-05-05 23:59 38.84131 -101.77566 35972 ft 380 kts 278°
2026-05-05 23:59 38.85663 -101.84064 35972 ft 381 kts 278°
2026-05-06 00:00 38.87191 -101.90583 35970 ft 381 kts 278°
2026-05-06 00:00 38.88722 -101.97071 35968 ft 382 kts 278°
2026-05-06 00:01 38.90271 -102.03616 35969 ft 383 kts 278°
2026-05-06 00:01 38.91819 -102.10170 35966 ft 383 kts 278°
2026-05-06 00:02 38.93273 -102.16746 35972 ft 382 kts 277°
2026-05-06 00:02 38.94622 -102.23314 35971 ft 383 kts 277°
2026-05-06 00:03 38.95976 -102.29937 35978 ft 383 kts 277°
2026-05-06 00:03 38.97337 -102.36585 35987 ft 385 kts 277°
2026-05-06 00:04 38.98700 -102.43247 35975 ft 386 kts 277°
2026-05-06 00:04 39.00055 -102.49883 35983 ft 387 kts 277°
2026-05-06 00:05 39.02102 -102.59958 35983 ft 389 kts 277°
2026-05-06 00:06 39.03468 -102.66705 35982 ft 390 kts 277°
2026-05-06 00:06 39.04834 -102.73474 35969 ft 392 kts 277°
2026-05-06 00:07 39.06205 -102.80287 35970 ft 393 kts 277°
2026-05-06 00:07 39.07565 -102.87069 35969 ft 394 kts 277°
2026-05-06 00:08 39.08937 -102.93937 35970 ft 396 kts 278°
2026-05-06 00:08 39.10299 -103.00771 35971 ft 397 kts 278°
2026-05-06 00:09 39.11670 -103.07680 35974 ft 398 kts 278°
2026-05-06 00:09 39.13041 -103.14609 35976 ft 399 kts 278°
2026-05-06 00:10 39.14375 -103.21508 35978 ft 399 kts 278°
2026-05-06 00:10 39.15722 -103.28474 35981 ft 400 kts 278°
2026-05-06 00:11 39.17081 -103.35448 35979 ft 401 kts 278°
2026-05-06 00:11 39.18444 -103.42441 35981 ft 402 kts 278°
2026-05-06 00:12 39.19808 -103.49456 35982 ft 404 kts 278°
2026-05-06 00:12 39.21166 -103.56461 35981 ft 405 kts 278°
2026-05-06 00:13 39.22531 -103.63527 35982 ft 406 kts 278°
2026-05-06 00:13 39.23885 -103.70564 35981 ft 407 kts 278°
2026-05-06 00:14 39.25248 -103.77672 35980 ft 408 kts 278°
2026-05-06 00:14 39.26610 -103.84800 35983 ft 409 kts 279°
2026-05-06 00:15 39.27964 -103.91911 35986 ft 410 kts 279°
2026-05-06 00:15 39.29324 -103.99080 35990 ft 412 kts 279°
2026-05-06 00:16 39.30684 -104.06272 35991 ft 412 kts 279°
2026-05-06 00:16 39.32042 -104.13484 35989 ft 413 kts 279°
2026-05-06 00:17 39.33395 -104.20719 35986 ft 415 kts 278°
2026-05-06 00:17 39.34723 -104.27993 35979 ft 416 kts 279°
2026-05-06 00:18 39.36054 -104.35234 35963 ft 418 kts 279°
2026-05-06 00:18 39.37408 -104.42557 35957 ft 419 kts 279°
2026-05-06 00:19 39.38760 -104.49868 35954 ft 420 kts 279°
2026-05-06 00:19 39.40119 -104.57245 35959 ft 422 kts 279°